Location: Mountain Grove
(34.0887°N, 86.6172°W)
Time: 21:51:27
(UTC+00:00)

PSLV R/B - Pass Details

Date: 14 July 2020
Orbit: 595 x 628 km, 97.9° (Epoch: 08 August)

Event Time Altitude Azimuth Distance (km) Brightness Sun altitude
Rises 10:09:59 0° 1° (N) 2,891 7.5 -7.3°
Reaches altitude 10° 10:12:17 10° 353° (N) 1,987 6.5 -6.9°
Maximum altitude 10:16:14 36° 287° (WNW) 994 4.3 -6.2°
Drops below altitude 10° 10:20:11 10° 221° (SW) 1,990 5.6 -5.5°
Enters shadow 10:21:34 - 215° (SW) 2,521 6.1 -5.2°
